| time (UTC) | temp F | wind direction | speed knots | gust knots | rain 1hr in | rain 24hr in | rain mn in | humidity % | barometer mb |
| 20260507001525 | 61 | 12 | 2.6 | 5.2 | 0.00 | 0.00 | 0.00 | 53 | 1016.3 |
| 20260507001010 | 62 | 51 | 1.7 | 7.8 | 0.00 | 0.00 | 0.00 | 54 | 1016.3 |
| 20260507000518 | 61 | 344 | 3.5 | 7.8 | 0.00 | 0.00 | 0.00 | 54 | 1016.2 |
| 20260507000031 | 61 | 69 | 3.5 | 7.0 | 0.00 | 0.00 | 0.00 | 53 | 1016.2 |
| 20260506235504 | 61 | 136 | 3.5 | 7.0 | 0.00 | 0.00 | 0.00 | 53 | 1016.1 |
| 20260506235009 | 61 | 76 | 2.6 | 8.7 | 0.00 | 0.00 | 0.00 | 54 | 1016.1 |
| 20260506234517 | 62 | 324 | 2.6 | 8.7 | 0.00 | 0.00 | 0.00 | 1016.1 | |
| 20260506234010 | 62 | 32 | 2.6 | 7.8 | 0.00 | 0.00 | 0.00 | 52 | 1016.0 |
| 20260506233509 | 62 | 352 | 2.6 | 7.8 | 0.00 | 0.00 | 0.00 | 52 | 1016.0 |
| 20260506233025 | 62 | 46 | 3.5 | 7.8 | 0.00 | 0.00 | 0.00 | 51 | 1016.0 |
| 20260506232506 | 63 | 13 | 2.6 | 8.7 | 0.00 | 0.00 | 0.00 | 52 | 1016.0 |
| 20260506232010 | 63 | 338 | 3.5 | 8.7 | 0.00 | 0.00 | 0.00 | 51 | 1015.9 |
| 20260506231527 | 63 | 113 | 3.5 | 8.7 | 0.00 | 0.00 | 0.00 | 51 | 1015.9 |
| 20260506231010 | 63 | 315 | 2.6 | 8.7 | 0.00 | 0.00 | 0.00 | 51 | 1015.9 |
| 20260506230510 | 63 | 350 | 2.6 | 7.8 | 0.00 | 0.00 | 0.00 | 50 | 1015.8 |
| 20260506230030 | 64 | 340 | 3.5 | 7.8 | 0.00 | 0.00 | 0.00 | 51 | 1015.8 |
| 20260506225512 | 64 | 69 | 2.6 | 8.7 | 0.00 | 0.00 | 0.00 | 51 | 1015.7 |
| 20260506225006 | 63 | 19 | 2.6 | 8.7 | 0.00 | 0.00 | 0.00 | 51 | 1015.7 |
| 20260506224522 | 64 | 9 | 1.7 | 9.6 | 0.00 | 0.00 | 0.00 | 51 | 1015.6 |
| 20260506224007 | 63 | 11 | 0.9 | 11.3 | 0.00 | 0.00 | 0.00 | 51 | 1015.7 |
| 20260506223510 | 63 | 67 | 5.2 | 11.3 | 0.00 | 0.00 | 0.00 | 49 | 1015.6 |
| 20260506223028 | 64 | 86 | 5.2 | 11.3 | 0.00 | 0.00 | 0.00 | 50 | 1015.6 |
| 20260506222510 | 64 | 20 | 1.7 | 8.7 | 0.00 | 0.00 | 0.00 | 51 | 1015.5 |
| 20260506222010 | 64 | 9 | 2.6 | 8.7 | 0.00 | 0.00 | 0.00 | 51 | 1015.5 |
| 20260506221530 | 63 | 69 | 2.6 | 7.8 | 0.00 | 0.00 | 0.00 | 51 | 1015.5 |
| 20260506221014 | 63 | 55 | 2.6 | 10.4 | 0.00 | 0.00 | 0.00 | 51 | 1015.5 |
| 20260506220510 | 63 | 15 | 4.3 | 10.4 | 0.00 | 0.00 | 0.00 | 50 | 1015.5 |
| 20260506220020 | 64 | 21 | 2.6 | 9.6 | 0.00 | 0.00 | 0.00 | 50 | 1015.5 |
| 20260506215508 | 64 | 31 | 2.6 | 9.6 | 0.00 | 0.00 | 0.00 | 50 | 1015.4 |
| 20260506215006 | 63 | 25 | 2.6 | 9.6 | 0.00 | 0.00 | 0.00 | 50 | 1015.4 |
| 20260506214503 | 65 | 79 | 6.1 | 9.6 | 0.00 | 0.00 | 0.00 | 49 | 1015.4 |
| 20260506214004 | 67 | 76 | 2.6 | 12.2 | 0.00 | 0.00 | 0.00 | 48 | 1015.3 |
| 20260506213503 | 66 | 78 | 5.2 | 12.2 | 0.00 | 0.00 | 0.00 | 47 | 1015.3 |
| 20260506213008 | 65 | 331 | 4.3 | 10.4 | 0.00 | 0.00 | 0.00 | 49 | 1015.4 |
| 20260506212506 | 64 | 30 | 2.6 | 10.4 | 0.00 | 0.00 | 0.00 | 50 | 1015.4 |
| 20260506212004 | 64 | 229 | 2.6 | 9.6 | 0.00 | 0.00 | 0.00 | 48 | 1015.5 |
| 20260506211501 | 65 | 57 | 4.3 | 10.4 | 0.00 | 0.00 | 0.00 | 48 | 1015.5 |
| 20260506211003 | 64 | 80 | 5.2 | 11.3 | 0.00 | 0.00 | 0.00 | 48 | 1015.5 |
| 20260506210503 | 66 | 86 | 4.3 | 11.3 | 0.00 | 0.00 | 0.00 | 48 | 1015.4 |
| 20260506210003 | 67 | 34 | 4.3 | 10.4 | 0.00 | 0.00 | 0.00 | 46 | 1015.4 |
| 20260506205502 | 66 | 49 | 2.6 | 10.4 | 0.00 | 0.00 | 0.00 | 48 | 1015.4 |
| 20260506205002 | 66 | 13 | 2.6 | 9.6 | 0.00 | 0.00 | 0.00 | 49 | 1015.5 |
| 20260506204506 | 64 | 352 | 2.6 | 12.2 | 0.00 | 0.00 | 0.00 | 49 | 1015.5 |
| 20260506204003 | 66 | 342 | 5.2 | 15.6 | 0.00 | 0.00 | 0.00 | 48 | 1015.4 |
| 20260506203502 | 65 | 78 | 7.8 | 15.6 | 0.00 | 0.00 | 0.00 | 47 | 1015.4 |
| 20260506203003 | 65 | 36 | 3.5 | 10.4 | 0.00 | 0.00 | 0.00 | 48 | 1015.4 |
| 20260506202502 | 65 | 345 | 4.3 | 10.4 | 0.00 | 0.00 | 0.00 | 48 | 1015.5 |
| 20260506202004 | 65 | 348 | 2.6 | 14.8 | 0.00 | 0.00 | 0.00 | 48 | 1015.6 |
| 20260506201504 | 64 | 46 | 4.3 | 14.8 | 0.00 | 0.00 | 0.00 | 49 | 1015.6 |
| 20260506201004 | 65 | 80 | 2.6 | 10.4 | 0.00 | 0.00 | 0.00 | 49 | 1015.7 |
| 20260506200503 | 65 | 352 | 2.6 | 11.3 | 0.00 | 0.00 | 0.00 | 50 | 1015.7 |
| 20260506200004 | 65 | 33 | 5.2 | 11.3 | 0.00 | 0.00 | 0.00 | 48 | 1015.7 |
| 20260506195502 | 65 | 352 | 2.6 | 10.4 | 0.00 | 0.00 | 0.00 | 50 | 1015.7 |
| 20260506195003 | 64 | 22 | 5.2 | 12.2 | 0.00 | 0.00 | 0.00 | 50 | 1015.7 |
| 20260506194503 | 64 | 352 | 5.2 | 12.2 | 0.00 | 0.00 | 0.00 | 49 | 1015.8 |
| 20260506194003 | 64 | 105 | 5.2 | 11.3 | 0.00 | 0.00 | 0.00 | 48 | 1015.7 |
| 20260506193504 | 64 | 328 | 4.3 | 11.3 | 0.00 | 0.00 | 0.00 | 49 | 1015.6 |
| 20260506193006 | 63 | 45 | 4.3 | 11.3 | 0.00 | 0.00 | 0.00 | 50 | 1015.8 |
| 20260506192503 | 63 | 338 | 3.5 | 11.3 | 0.00 | 0.00 | 0.00 | 50 | 1015.7 |
| 20260506192003 | 64 | 94 | 5.2 | 12.2 | 0.00 | 0.00 | 0.00 | 48 | 1015.7 |
| 20260506191506 | 63 | 11 | 4.3 | 12.2 | 0.00 | 0.00 | 0.00 | 52 | 1015.8 |
| 20260506191003 | 63 | 83 | 3.5 | 11.3 | 0.00 | 0.00 | 0.00 | 49 | 1015.8 |
| 20260506190507 | 63 | 352 | 4.3 | 11.3 | 0.00 | 0.00 | 0.00 | 50 | 1016.0 |
| 20260506190008 | 62 | 352 | 5.2 | 9.6 | 0.00 | 0.00 | 0.00 | 51 | 1016.0 |
| 20260506185503 | 62 | 76 | 3.5 | 10.4 | 0.00 | 0.00 | 0.00 | 53 | 1016.1 |
| 20260506185003 | 62 | 9 | 5.2 | 11.3 | 0.00 | 0.00 | 0.00 | 53 | 1016.3 |
| 20260506184507 | 61 | 77 | 5.2 | 11.3 | 0.00 | 0.00 | 0.00 | 53 | 1016.2 |
| 20260506184003 | 61 | 20 | 4.3 | 11.3 | 0.00 | 0.00 | 0.00 | 54 | 1016.5 |
| 20260506183503 | 61 | 47 | 3.5 | 13.9 | 0.00 | 0.00 | 0.00 | 53 | 1016.6 |
| 20260506183007 | 60 | 349 | 3.5 | 13.9 | 0.00 | 0.00 | 0.00 | 55 | 1016.6 |
| 20260506182502 | 60 | 70 | 4.3 | 11.3 | 0.00 | 0.00 | 0.00 | 54 | 1016.7 |
| 20260506182010 | 61 | 49 | 2.6 | 12.2 | 0.00 | 0.00 | 0.00 | 54 | 1016.8 |
| 20260506181508 | 61 | 34 | 4.3 | 12.2 | 0.00 | 0.00 | 0.00 | 54 | 1017.0 |
| 20260506181003 | 60 | 330 | 3.5 | 10.4 | 0.00 | 0.00 | 0.00 | 57 | 1017.2 |
| 20260506180506 | 59 | 5 | 2.6 | 9.6 | 0.00 | 0.00 | 0.00 | 58 | 1017.2 |
| 20260506180006 | 59 | 81 | 4.3 | 13.0 | 0.00 | 0.00 | 0.00 | 57 | 1017.1 |
| 20260506175504 | 58 | 360 | 7.0 | 13.0 | 0.00 | 0.00 | 0.00 | 59 | 1017.1 |
| 20260506175003 | 58 | 49 | 5.2 | 10.4 | 0.00 | 0.00 | 0.00 | 59 | 1017.2 |
| 20260506174507 | 58 | 76 | 4.3 | 10.4 | 0.00 | 0.00 | 0.00 | 61 | 1017.2 |
| 20260506174006 | 57 | 62 | 2.6 | 10.4 | 0.00 | 0.00 | 0.00 | 60 | 1017.3 |
| 20260506173504 | 58 | 92 | 5.2 | 10.4 | 0.00 | 0.00 | 0.00 | 59 | 1017.4 |
| 20260506173010 | 58 | 78 | 4.3 | 13.0 | 0.00 | 0.00 | 0.00 | 58 | 1017.4 |
| 20260506172504 | 57 | 78 | 5.2 | 13.0 | 0.00 | 0.00 | 0.00 | 60 | 1017.4 |
| 20260506172003 | 57 | 71 | 6.1 | 13.0 | 0.00 | 0.00 | 0.00 | 60 | 1017.4 |
| 20260506171507 | 57 | 69 | 7.0 | 10.4 | 0.00 | 0.00 | 0.00 | 59 | 1017.4 |
| 20260506171005 | 57 | 77 | 3.5 | 13.0 | 0.00 | 0.00 | 0.00 | 60 | 1017.5 |
| 20260506170504 | 57 | 25 | 3.5 | 13.0 | 0.00 | 0.00 | 0.00 | 59 | 1017.5 |
| 20260506170008 | 57 | 95 | 5.2 | 13.0 | 0.00 | 0.00 | 0.00 | 58 | 1017.8 |
| 20260506165503 | 58 | 71 | 6.1 | 12.2 | 0.00 | 0.00 | 0.00 | 58 | 1017.5 |
| 20260506165003 | 58 | 52 | 4.3 | 13.0 | 0.00 | 0.00 | 0.00 | 58 | 1017.4 |
| 20260506164509 | 58 | 38 | 4.3 | 13.0 | 0.00 | 0.00 | 0.00 | 60 | 1017.4 |
| 20260506164003 | 57 | 91 | 6.1 | 13.0 | 0.00 | 0.00 | 0.00 | 59 | 1017.4 |
| 20260506163507 | 57 | 83 | 6.1 | 11.3 | 0.00 | 0.00 | 0.00 | 58 | 1017.5 |
| 20260506163018 | 57 | 94 | 6.1 | 11.3 | 0.00 | 0.00 | 0.00 | 59 | 1017.6 |
| 20260506162503 | 57 | 73 | 4.3 | 11.3 | 0.00 | 0.00 | 0.00 | 59 | 1017.7 |
| 20260506162011 | 56 | 57 | 3.5 | 12.2 | 0.00 | 0.00 | 0.00 | 61 | 1017.7 |
| 20260506161519 | 56 | 63 | 7.0 | 12.2 | 0.00 | 0.00 | 0.00 | 63 | 1017.9 |
| 20260506161003 | 55 | 80 | 5.2 | 11.3 | 0.00 | 0.00 | 0.00 | 62 | 1017.7 |
| 20260506160505 | 55 | 59 | 3.5 | 13.0 | 0.00 | 0.00 | 0.00 | 62 | 1017.8 |
| 20260506160013 | 55 | 82 | 6.1 | 13.0 | 0.00 | 0.00 | 0.00 | 63 | 1017.7 |
| 20260506155511 | 54 | 23 | 4.3 | 13.0 | 0.00 | 0.00 | 0.00 | 64 | 1017.6 |
| 20260506155003 | 53 | 325 | 6.1 | 13.0 | 0.00 | 0.00 | 0.00 | 64 | 1017.7 |
| 20260506154508 | 54 | 19 | 6.1 | 12.2 | 0.00 | 0.00 | 0.00 | 65 | 1017.6 |
| 20260506154005 | 54 | 64 | 5.2 | 10.4 | 0.00 | 0.00 | 0.00 | 66 | 1017.5 |
| 20260506153506 | 53 | 46 | 2.6 | 9.6 | 0.00 | 0.00 | 0.00 | 68 | 1017.4 |
| 20260506153011 | 52 | 57 | 5.2 | 10.4 | 0.00 | 0.00 | 0.00 | 67 | 1017.4 |
| 20260506152505 | 52 | 337 | 5.2 | 10.4 | 0.00 | 0.00 | 0.00 | 68 | 1017.3 |
| 20260506152006 | 52 | 32 | 4.3 | 12.2 | 0.00 | 0.00 | 0.00 | 68 | 1017.2 |
| 20260506151511 | 52 | 21 | 5.2 | 12.2 | 0.00 | 0.00 | 0.00 | 68 | 1017.2 |
| 20260506151006 | 52 | 5 | 5.2 | 10.4 | 0.00 | 0.00 | 0.00 | 68 | 1017.1 |
| 20260506150507 | 51 | 360 | 3.5 | 10.4 | 0.00 | 0.00 | 0.00 | 70 | 1017.1 |
| 20260506150012 | 51 | 94 | 4.3 | 13.0 | 0.00 | 0.00 | 0.00 | 70 | 1017.2 |
| 20260506145506 | 51 | 317 | 5.2 | 11.3 | 0.00 | 0.00 | 0.00 | 70 | 1016.8 |
| 20260506145004 | 51 | 318 | 4.3 | 10.4 | 0.00 | 0.00 | 0.00 | 72 | 1016.6 |
| 20260506144512 | 51 | 28 | 4.3 | 10.4 | 0.00 | 0.00 | 0.00 | 72 | 1016.4 |
| 20260506144006 | 51 | 52 | 2.6 | 10.4 | 0.00 | 0.00 | 0.00 | 72 | 1016.3 |
| 20260506143507 | 50 | 47 | 3.5 | 12.2 | 0.00 | 0.00 | 0.00 | 73 | 1016.1 |
| 20260506143012 | 50 | 360 | 5.2 | 12.2 | 0.00 | 0.00 | 0.00 | 73 | 1016.0 |
| 20260506142507 | 50 | 5 | 5.2 | 13.0 | 0.00 | 0.00 | 0.00 | 73 | 1016.1 |
| 20260506142007 | 50 | 227 | 5.2 | 16.5 | 0.00 | 0.00 | 0.00 | 73 | 1016.2 |
| 20260506141512 | 50 | 13 | 6.1 | 16.5 | 0.00 | 0.00 | 0.00 | 73 | 1016.2 |
| 20260506141006 | 50 | 88 | 6.1 | 15.6 | 0.00 | 0.00 | 0.00 | 73 | 1016.2 |
| 20260506140506 | 49 | 26 | 3.5 | 14.8 | 0.00 | 0.00 | 0.00 | 74 | 1016.3 |
| 20260506140030 | 49 | 291 | 7.0 | 14.8 | 0.00 | 0.00 | 0.00 | 75 | 1016.3 |
| 20260506135507 | 49 | 360 | 4.3 | 10.4 | 0.00 | 0.00 | 0.00 | 74 | 1016.3 |
| 20260506135011 | 49 | 346 | 3.5 | 10.4 | 0.00 | 0.00 | 0.00 | 75 | 1016.2 |
| 20260506134527 | 49 | 61 | 4.3 | 11.3 | 0.00 | 0.00 | 0.00 | 75 | 1016.4 |
| 20260506134007 | 49 | 78 | 3.5 | 11.3 | 0.00 | 0.00 | 0.00 | 75 | 1016.3 |
| 20260506133504 | 49 | 348 | 2.6 | 11.3 | 0.00 | 0.00 | 0.00 | 75 | 1016.4 |
| 20260506133015 | 48 | 24 | 3.5 | 11.3 | 0.00 | 0.00 | 0.00 | 75 | 1016.4 |
| 20260506132504 | 49 | 352 | 4.3 | 11.3 | 0.00 | 0.00 | 0.00 | 75 | 1016.4 |
| 20260506132005 | 49 | 360 | 4.3 | 9.6 | 0.00 | 0.00 | 0.00 | 75 | 1016.4 |
| 20260506131515 | 48 | 40 | 3.5 | 9.6 | 0.00 | 0.00 | 0.00 | 75 | 1016.2 |
| 20260506131007 | 48 | 348 | 4.3 | 10.4 | 0.00 | 0.00 | 0.00 | 75 | 1016.3 |
| 20260506130507 | 48 | 346 | 4.3 | 10.4 | 0.00 | 0.00 | 0.00 | 75 | 1016.1 |
| 20260506130018 | 48 | 45 | 2.6 | 10.4 | 0.00 | 0.00 | 0.00 | 74 | 1015.9 |
| 20260506125506 | 48 | 11 | 3.5 | 10.4 | 0.00 | 0.00 | 0.00 | 74 | 1015.8 |
| 20260506125006 | 48 | 22 | 3.5 | 8.7 | 0.00 | 0.00 | 0.00 | 74 | 1015.7 |
| 20260506124516 | 48 | 40 | 1.7 | 8.7 | 0.00 | 0.00 | 0.00 | 74 | 1015.7 |
| 20260506124006 | 48 | 26 | 4.3 | 8.7 | 0.00 | 0.00 | 0.00 | 74 | 1015.6 |
| 20260506123510 | 48 | 22 | 1.7 | 10.4 | 0.00 | 0.00 | 0.00 | 74 | 1015.4 |
| 20260506123028 | 48 | 67 | 4.3 | 10.4 | 0.00 | 0.00 | 0.00 | 74 | 1015.3 |
| 20260506122511 | 48 | 74 | 2.6 | 9.6 | 0.00 | 0.00 | 0.00 | 74 | 1015.3 |
| 20260506122012 | 48 | 344 | 2.6 | 9.6 | 0.00 | 0.00 | 0.00 | 74 | 1015.5 |
| 20260506121530 | 48 | 348 | 3.5 | 8.7 | 0.00 | 0.00 | 0.00 | 73 | 1015.3 |
| 20260506121009 | 48 | 9 | 4.3 | 8.7 | 0.00 | 0.00 | 0.00 | 73 | 1015.3 |
| 20260506120510 | 48 | 344 | 2.6 | 8.7 | 0.00 | 0.00 | 0.00 | 74 | 1015.4 |
| 20260506120028 | 48 | 33 | 2.6 | 8.7 | 0.00 | 0.00 | 0.00 | 73 | 1015.1 |
| 20260506115508 | 48 | 340 | 3.5 | 11.3 | 0.00 | 0.00 | 0.00 | 73 | 1014.8 |
| 20260506115007 | 48 | 5 | 3.5 | 11.3 | 0.00 | 0.00 | 0.00 | 73 | 1014.9 |
| 20260506114534 | 48 | 352 | 2.6 | 9.6 | 0.00 | 0.00 | 0.00 | 73 | 1014.9 |
| 20260506114007 | 48 | 17 | 2.6 | 9.6 | 0.00 | 0.00 | 0.00 | 73 | 1014.7 |
| 20260506113510 | 48 | 52 | 3.5 | 9.6 | 0.00 | 0.00 | 0.00 | 73 | 1014.7 |
| 20260506113032 | 48 | 44 | 4.3 | 9.6 | 0.00 | 0.00 | 0.00 | 73 | 1014.5 |
| 20260506112509 | 48 | 57 | 2.6 | 10.4 | 0.00 | 0.00 | 0.00 | 73 | 1014.5 |
| 20260506112014 | 48 | 341 | 2.6 | 10.4 | 0.00 | 0.00 | 0.00 | 73 | 1014.5 |
| 20260506111526 | 48 | 9 | 3.5 | 12.2 | 0.00 | 0.00 | 0.00 | 73 | 1014.7 |
| 20260506111011 | 48 | 338 | 4.3 | 12.2 | 0.00 | 0.00 | 0.00 | 72 | 1014.9 |
| 20260506110510 | 48 | 24 | 5.2 | 12.2 | 0.00 | 0.00 | 0.00 | 72 | 1015.0 |
| 20260506110029 | 48 | 352 | 3.5 | 12.2 | 0.00 | 0.00 | 0.00 | 72 | 1014.9 |
| 20260506105509 | 48 | 62 | 6.1 | 11.3 | 0.00 | 0.00 | 0.00 | 72 | 1014.9 |
| 20260506105008 | 48 | 346 | 3.5 | 11.3 | 0.00 | 0.00 | 0.00 | 72 | 1014.7 |
| 20260506104527 | 48 | 331 | 3.5 | 11.3 | 0.00 | 0.00 | 0.00 | 72 | 1014.5 |
| 20260506104006 | 48 | 5 | 3.5 | 11.3 | 0.00 | 0.00 | 0.00 | 72 | 1014.5 |
| 20260506103510 | 48 | 30 | 2.6 | 11.3 | 0.00 | 0.00 | 0.00 | 72 | 1014.4 |
| 20260506103029 | 49 | 15 | 4.3 | 11.3 | 0.00 | 0.00 | 0.00 | 72 | 1014.5 |
| 20260506102507 | 49 | 13 | 4.3 | 9.6 | 0.00 | 0.00 | 0.00 | 72 | 1014.6 |
| 20260506102010 | 49 | 352 | 1.7 | 9.6 | 0.00 | 0.00 | 0.00 | 72 | 1014.6 |
| 20260506101527 | 49 | 180 | 3.5 | 9.6 | 0.00 | 0.00 | 0.00 | 72 | 1014.6 |
| 20260506101009 | 49 | 352 | 2.6 | 13.0 | 0.00 | 0.00 | 0.00 | 72 | 1014.7 |
| 20260506100509 | 49 | 329 | 4.3 | 11.3 | 0.00 | 0.00 | 0.00 | 72 | 1014.7 |
| 20260506100034 | 49 | 328 | 3.5 | 13.9 | 0.00 | 0.00 | 0.00 | 72 | 1014.5 |
| 20260506095510 | 49 | 10 | 3.5 | 13.9 | 0.00 | 0.00 | 0.00 | 72 | 1014.4 |
| 20260506095009 | 49 | 346 | 3.5 | 8.7 | 0.00 | 0.00 | 0.00 | 72 | 1014.3 |
| 20260506094528 | 49 | 19 | 3.5 | 8.7 | 0.00 | 0.00 | 0.00 | 72 | 1014.1 |
| 20260506094006 | 49 | 352 | 3.5 | 9.6 | 0.00 | 0.00 | 0.00 | 72 | 1014.4 |
| 20260506093507 | 49 | 346 | 2.6 | 9.6 | 0.00 | 0.00 | 0.00 | 72 | 1014.3 |
| 20260506093030 | 49 | 33 | 2.6 | 9.6 | 0.00 | 0.00 | 0.00 | 72 | 1014.3 |
| 20260506092512 | 49 | 15 | 3.5 | 7.8 | 0.00 | 0.00 | 0.00 | 72 | 1014.1 |
| 20260506092010 | 49 | 60 | 3.5 | 7.8 | 0.00 | 0.00 | 0.00 | 71 | 1014.3 |
| 20260506091530 | 49 | 328 | 1.7 | 7.8 | 0.00 | 0.00 | 0.00 | 71 | 1014.2 |
| 20260506091010 | 49 | 9 | 2.6 | 8.7 | 0.00 | 0.00 | 0.00 | 71 | 1014.2 |
| 20260506090510 | 49 | 65 | 2.6 | 8.7 | 0.00 | 0.00 | 0.00 | 71 | 1013.9 |
| 20260506090027 | 49 | 11 | 2.6 | 13.0 | 0.00 | 0.00 | 0.00 | 71 | 1013.9 |
| 20260506085509 | 49 | 24 | 5.2 | 13.0 | 0.00 | 0.00 | 0.00 | 70 | 1013.7 |
| 20260506085006 | 49 | 17 | 3.5 | 11.3 | 0.00 | 0.00 | 0.00 | 70 | 1013.4 |
| 20260506084528 | 49 | 340 | 2.6 | 10.4 | 0.00 | 0.00 | 0.00 | 70 | 1013.6 |
| 20260506084010 | 49 | 5 | 2.6 | 8.7 | 0.00 | 0.00 | 0.00 | 70 | 1013.6 |
| 20260506083509 | 49 | 9 | 1.7 | 11.3 | 0.00 | 0.00 | 0.00 | 70 | 1013.7 |
| 20260506083019 | 49 | 99 | 1.7 | 11.3 | 0.00 | 0.00 | 0.00 | 70 | 1013.7 |
| 20260506082507 | 49 | 16 | 2.6 | 8.7 | 0.00 | 0.00 | 0.00 | 70 | 1013.5 |
| 20260506082007 | 49 | 348 | 2.6 | 8.7 | 0.00 | 0.00 | 0.00 | 69 | 1013.2 |
| 20260506081528 | 49 | 349 | 1.7 | 7.0 | 0.00 | 0.00 | 0.00 | 69 | 1012.9 |
| 20260506081010 | 49 | 342 | 2.6 | 7.8 | 0.00 | 0.00 | 0.00 | 69 | 1012.8 |
| 20260506080507 | 49 | 11 | 2.6 | 8.7 | 0.00 | 0.00 | 0.00 | 68 | 1012.5 |
| 20260506073510 | 49 | 352 | 3.5 | 11.3 | 0.00 | 0.00 | 0.00 | 66 | 1011.8 |
| 20260506073020 | 49 | 351 | 3.5 | 14.8 | 0.00 | 0.00 | 0.00 | 65 | 1012.0 |
| 20260506072507 | 49 | 58 | 6.1 | 14.8 | 0.00 | 0.00 | 0.00 | 65 | 1012.1 |
| 20260506072008 | 49 | 349 | 4.3 | 9.6 | 0.00 | 0.00 | 0.00 | 65 | 1012.1 |
| 20260506071526 | 49 | 69 | 4.3 | 12.2 | 0.00 | 0.00 | 0.00 | 65 | 1012.0 |
| 20260506071008 | 49 | 348 | 3.5 | 12.2 | 0.00 | 0.00 | 0.00 | 65 | 1012.3 |
| 20260506070504 | 49 | 19 | 3.5 | 11.3 | 0.00 | 0.00 | 0.00 | 65 | 1012.3 |
| 20260506062508 | 49 | 313 | 2.6 | 10.4 | 0.00 | 0.00 | 0.00 | 69 | 1012.3 |
| 20260506062017 | 49 | 352 | 2.6 | 7.8 | 0.00 | 0.00 | 0.00 | 69 | 1012.4 |
| 20260506061534 | 49 | 57 | 3.5 | 9.6 | 0.00 | 0.00 | 0.00 | 70 | 1012.3 |
| 20260506061011 | 49 | 32 | 2.6 | 9.6 | 0.00 | 0.00 | 0.00 | 71 | 1012.5 |
| 20260506060508 | 49 | 61 | 1.7 | 8.7 | 0.00 | 0.00 | 0.00 | 72 | 1012.4 |
| 20260506051013 | 49 | 44 | 4.3 | 11.3 | 0.00 | 0.00 | 0.00 | 75 | 1012.2 |
| 20260506050504 | 49 | 339 | 4.3 | 11.3 | 0.00 | 0.00 | 0.00 | 75 | 1012.5 |
| 20260506045007 | 49 | 51 | 2.6 | 9.6 | 0.00 | 0.00 | 0.00 | 76 | 1012.7 |
| 20260506044520 | 49 | 91 | 3.5 | 11.3 | 0.00 | 0.00 | 0.00 | 76 | 1012.5 |
| 20260506044013 | 49 | 33 | 3.5 | 11.3 | 0.00 | 0.00 | 0.00 | 77 | 1012.5 |
| 20260506043511 | 49 | 346 | 3.5 | 8.7 | 0.00 | 0.00 | 0.00 | 78 | 1012.4 |
| 20260506043025 | 49 | 5 | 2.6 | 7.8 | 0.00 | 0.00 | 0.00 | 79 | 1012.4 |
| 20260506042507 | 49 | 342 | 2.6 | 7.8 | 0.00 | 0.00 | 0.00 | 79 | 1012.5 |
| 20260506042012 | 49 | 5 | 3.5 | 9.6 | 0.00 | 0.00 | 0.00 | 80 | 1012.5 |
| 20260506041524 | 49 | 46 | 3.5 | 8.7 | 0.00 | 0.00 | 0.00 | 80 | 1012.5 |
| 20260506041003 | 49 | 35 | 3.5 | 7.8 | 0.00 | 0.00 | 0.00 | 80 | 1012.5 |
| 20260506040508 | 49 | 19 | 2.6 | 8.7 | 0.00 | 0.00 | 0.00 | 80 | 1012.4 |
| 20260506040021 | 49 | 317 | 1.7 | 10.4 | 0.00 | 0.00 | 0.00 | 80 | 1012.5 |
| 20260506035508 | 49 | 70 | 3.5 | 10.4 | 0.00 | 0.00 | 0.00 | 80 | 1012.5 |
| 20260506035008 | 49 | 82 | 4.3 | 10.4 | 0.00 | 0.00 | 0.00 | 80 | 1012.5 |
| 20260506034522 | 49 | 19 | 2.6 | 9.6 | 0.00 | 0.00 | 0.00 | 80 | 1012.5 |
| 20260506034010 | 49 | 340 | 2.6 | 9.6 | 0.00 | 0.00 | 0.00 | 80 | 1012.3 |
| 20260506033509 | 49 | 93 | 2.6 | 9.6 | 0.00 | 0.00 | 0.00 | 80 | 1012.4 |
| 20260506033027 | 49 | 13 | 3.5 | 11.3 | 0.00 | 0.00 | 0.00 | 79 | 1012.3 |
| 20260506032511 | 49 | 322 | 3.5 | 13.0 | 0.00 | 0.00 | 0.00 | 79 | 1012.2 |
| 20260506032007 | 49 | 328 | 4.3 | 13.0 | 0.00 | 0.00 | 0.00 | 79 | 1012.1 |
| 20260506031534 | 49 | 360 | 4.3 | 13.9 | 0.00 | 0.00 | 0.00 | 79 | 1012.1 |
| 20260506031006 | 49 | 171 | 4.3 | 13.9 | 0.00 | 0.00 | 0.00 | 79 | 1011.8 |
| 20260506030506 | 50 | 59 | 5.2 | 10.4 | 0.00 | 0.00 | 0.00 | 79 | 1011.8 |
| 20260506030019 | 50 | 94 | 2.6 | 9.6 | 0.00 | 0.00 | 0.00 | 79 | 1011.7 |
| 20260506025508 | 50 | 13 | 3.5 | 10.4 | 0.00 | 0.00 | 0.00 | 79 | 1011.7 |
| 20260506025006 | 50 | 352 | 4.3 | 10.4 | 0.00 | 0.00 | 0.00 | 79 | 1011.7 |
| 20260506024535 | 50 | 10 | 4.3 | 11.3 | 0.00 | 0.00 | 0.00 | 79 | 1011.5 |
| 20260506024007 | 50 | 329 | 4.3 | 11.3 | 0.00 | 0.00 | 0.00 | 79 | 1011.5 |
| 20260506023503 | 50 | 32 | 1.7 | 10.4 | 0.00 | 0.00 | 0.00 | 79 | 1011.4 |
| 20260506023008 | 50 | 83 | 3.5 | 11.3 | 0.00 | 0.00 | 0.00 | 78 | 1011.3 |
| 20260506022506 | 50 | 34 | 5.2 | 11.3 | 0.00 | 0.00 | 0.00 | 78 | 1011.0 |
| 20260506022008 | 50 | 93 | 5.2 | 13.9 | 0.00 | 0.00 | 0.00 | 78 | 1011.1 |
| 20260506021514 | 50 | 289 | 5.2 | 13.9 | 0.00 | 0.00 | 0.00 | 78 | 1011.2 |
| 20260506021007 | 50 | 352 | 5.2 | 13.9 | 0.00 | 0.00 | 0.00 | 77 | 1011.0 |
| 20260506020505 | 50 | 45 | 3.5 | 13.9 | 0.00 | 0.00 | 0.00 | 77 | 1011.0 |
| 20260506020005 | 50 | 32 | 3.5 | 11.3 | 0.00 | 0.00 | 0.00 | 77 | 1010.8 |
| 20260506015506 | 51 | 340 | 3.5 | 11.3 | 0.00 | 0.00 | 0.00 | 77 | 1010.7 |
| 20260506015004 | 51 | 5 | 4.3 | 11.3 | 0.00 | 0.00 | 0.00 | 76 | 1010.7 |
| 20260506014513 | 51 | 315 | 3.5 | 11.3 | 0.00 | 0.00 | 0.00 | 76 | 1010.6 |
| 20260506014004 | 51 | 20 | 3.5 | 10.4 | 0.00 | 0.00 | 0.00 | 75 | 1010.6 |
| 20260506013504 | 51 | 5 | 3.5 | 10.4 | 0.00 | 0.00 | 0.00 | 74 | 1010.6 |
| 20260506013007 | 51 | 329 | 3.5 | 10.4 | 0.00 | 0.00 | 0.00 | 74 | 1010.6 |
| 20260506012505 | 51 | 352 | 3.5 | 10.4 | 0.00 | 0.00 | 0.00 | 73 | 1010.4 |
| 20260506012007 | 52 | 335 | 3.5 | 8.7 | 0.00 | 0.00 | 0.00 | 73 | 1010.1 |
| 20260506011537 | 52 | 351 | 1.7 | 7.0 | 0.00 | 0.00 | 0.00 | 73 | 1010.1 |
| 20260506011008 | 52 | 37 | 2.6 | 11.3 | 0.00 | 0.00 | 0.00 | 72 | 1010.1 |
| 20260506010513 | 52 | 350 | 1.7 | 11.3 | 0.00 | 0.00 | 0.00 | 72 | 1010.1 |
| 20260506010003 | 52 | 68 | 2.6 | 9.6 | 0.00 | 0.00 | 0.00 | 72 | 1009.9 |
| 20260506005502 | 52 | 23 | 2.6 | 9.6 | 0.00 | 0.00 | 0.00 | 72 | 1009.9 |
| 20260506005003 | 52 | 99 | 3.5 | 9.6 | 0.00 | 0.00 | 0.00 | 72 | 1009.8 |
| 20260506004506 | 52 | 13 | 3.5 | 12.2 | 0.00 | 0.00 | 0.00 | 72 | 1009.6 |
| 20260506004002 | 52 | 37 | 3.5 | 12.2 | 0.00 | 0.00 | 0.00 | 72 | 1009.5 |
| 20260506003503 | 52 | 11 | 3.5 | 8.7 | 0.00 | 0.00 | 0.00 | 73 | 1009.4 |
| 20260506003015 | 52 | 339 | 2.6 | 8.7 | 0.00 | 0.00 | 0.00 | 72 | 1009.3 |
| 20260506002509 | 53 | 40 | 3.5 | 8.7 | 0.00 | 0.00 | 0.00 | 73 | 1009.3 |
| 20260506002011 | 53 | 84 | 1.7 | 8.7 | 0.00 | 0.00 | 0.00 | 73 | 1009.3 |